Year,Month,Day,Hour,Minute,Value (Times are PST for temperature in C)
2015,10,02,00,00,9.10
2015,10,02,00,01,9.10
2015,10,02,00,02,9.10
2015,10,02,00,03,9.10
2015,10,02,00,04,9.10
2015,10,02,00,05,9.10
2015,10,02,00,06,9.10
2015,10,02,00,07,9.10
2015,10,02,00,08,9.10
2015,10,02,00,09,9.10
2015,10,02,00,10,9.10
2015,10,02,00,11,9.10
2015,10,02,00,12,9.10
2015,10,02,00,13,9.10
2015,10,02,00,14,9.10
2015,10,02,00,15,9.10
2015,10,02,00,16,9.10
2015,10,02,00,17,9.10
2015,10,02,00,18,9.10
2015,10,02,00,19,9.10
2015,10,02,00,20,9.00
2015,10,02,00,21,9.00
2015,10,02,00,22,9.00
2015,10,02,00,23,9.00
2015,10,02,00,24,8.90
2015,10,02,00,25,8.90
2015,10,02,00,26,8.90
2015,10,02,00,27,8.90
2015,10,02,00,28,8.90
2015,10,02,00,29,8.90
2015,10,02,00,30,8.80
2015,10,02,00,31,8.80
2015,10,02,00,32,8.80
2015,10,02,00,33,8.80
2015,10,02,00,34,8.80
2015,10,02,00,35,8.80
2015,10,02,00,36,8.80
2015,10,02,00,37,8.80
2015,10,02,00,38,8.80
2015,10,02,00,39,8.80
2015,10,02,00,40,8.70
2015,10,02,00,41,8.70
2015,10,02,00,42,8.70
2015,10,02,00,43,8.70
2015,10,02,00,44,8.70
2015,10,02,00,45,8.70
2015,10,02,00,46,8.60
2015,10,02,00,47,8.60
2015,10,02,00,48,8.60
2015,10,02,00,49,8.60
2015,10,02,00,50,8.60
2015,10,02,00,51,8.60
2015,10,02,00,52,8.50
2015,10,02,00,53,8.50
2015,10,02,00,54,8.50
2015,10,02,00,55,8.50
2015,10,02,00,56,8.50
2015,10,02,00,57,8.50
2015,10,02,00,58,8.50
2015,10,02,00,59,8.50
2015,10,02,01,00,8.50
2015,10,02,01,01,8.50
2015,10,02,01,02,8.50
2015,10,02,01,03,8.50
2015,10,02,01,04,8.50
2015,10,02,01,05,8.50
2015,10,02,01,06,8.50
2015,10,02,01,07,8.50
2015,10,02,01,08,8.40
2015,10,02,01,09,8.40
2015,10,02,01,10,8.40
2015,10,02,01,11,8.40
2015,10,02,01,12,8.40
2015,10,02,01,13,8.40
2015,10,02,01,14,8.40
2015,10,02,01,15,8.40
2015,10,02,01,16,8.40
2015,10,02,01,17,8.40
2015,10,02,01,18,8.50
2015,10,02,01,19,8.50
2015,10,02,01,20,8.50
2015,10,02,01,21,8.50
2015,10,02,01,22,8.50
2015,10,02,01,23,8.50
2015,10,02,01,24,8.50
2015,10,02,01,25,8.50
2015,10,02,01,26,8.50
2015,10,02,01,27,8.50
2015,10,02,01,28,8.50
2015,10,02,01,29,8.60
2015,10,02,01,30,8.60
2015,10,02,01,31,8.60
2015,10,02,01,32,8.60
2015,10,02,01,33,8.60
2015,10,02,01,34,8.60
2015,10,02,01,35,8.60
2015,10,02,01,36,8.60
2015,10,02,01,37,8.60
2015,10,02,01,38,8.70
2015,10,02,01,39,8.70
2015,10,02,01,40,8.70
2015,10,02,01,41,8.70
2015,10,02,01,42,8.70
2015,10,02,01,43,8.70
2015,10,02,01,44,8.80
2015,10,02,01,45,8.80
2015,10,02,01,46,8.80
2015,10,02,01,47,8.80
2015,10,02,01,48,8.80
2015,10,02,01,49,8.70
2015,10,02,01,50,8.70
2015,10,02,01,51,8.70
2015,10,02,01,52,8.70
2015,10,02,01,53,8.70
2015,10,02,01,54,8.70
2015,10,02,01,55,8.70
2015,10,02,01,56,8.70
2015,10,02,01,57,8.70
2015,10,02,01,58,8.70
2015,10,02,01,59,8.70
2015,10,02,02,00,8.70
2015,10,02,02,01,8.70
2015,10,02,02,02,8.70
2015,10,02,02,03,8.70
2015,10,02,02,04,8.70
2015,10,02,02,05,8.70
2015,10,02,02,06,8.70
2015,10,02,02,07,8.70
2015,10,02,02,08,8.60
2015,10,02,02,09,8.60
2015,10,02,02,10,8.60
2015,10,02,02,11,8.60
2015,10,02,02,12,8.60
2015,10,02,02,13,8.60
2015,10,02,02,14,8.60
2015,10,02,02,15,8.60
2015,10,02,02,16,8.50
2015,10,02,02,17,8.50
2015,10,02,02,18,8.50
2015,10,02,02,19,8.40
2015,10,02,02,20,8.40
2015,10,02,02,21,8.40
2015,10,02,02,22,8.40
2015,10,02,02,23,8.40
2015,10,02,02,24,8.30
2015,10,02,02,25,8.30
2015,10,02,02,26,8.30
2015,10,02,02,27,8.30
2015,10,02,02,28,8.30
2015,10,02,02,29,8.30
2015,10,02,02,30,8.30
2015,10,02,02,31,8.30
2015,10,02,02,32,8.30
2015,10,02,02,33,8.30
2015,10,02,02,34,8.20
2015,10,02,02,35,8.20
2015,10,02,02,36,8.20
2015,10,02,02,37,8.20
2015,10,02,02,38,8.20
2015,10,02,02,39,8.20
2015,10,02,02,40,8.10
2015,10,02,02,41,8.10
2015,10,02,02,42,8.10
2015,10,02,02,43,8.10
2015,10,02,02,44,8.10
2015,10,02,02,45,8.00
2015,10,02,02,46,8.00
2015,10,02,02,47,8.00
2015,10,02,02,48,8.00
2015,10,02,02,49,8.00
2015,10,02,02,50,8.00
2015,10,02,02,51,7.90
2015,10,02,02,52,7.90
2015,10,02,02,53,7.90
2015,10,02,02,54,7.90
2015,10,02,02,55,7.80
2015,10,02,02,56,7.80
2015,10,02,02,57,7.80
2015,10,02,02,58,7.80
2015,10,02,02,59,7.80
2015,10,02,03,00,7.80
2015,10,02,03,01,7.80
2015,10,02,03,02,7.90
2015,10,02,03,03,7.90
2015,10,02,03,04,7.90
2015,10,02,03,05,7.90
2015,10,02,03,06,8.00
2015,10,02,03,07,8.00
2015,10,02,03,08,8.00
2015,10,02,03,09,8.00
2015,10,02,03,10,8.00
2015,10,02,03,11,8.00
2015,10,02,03,12,8.00
2015,10,02,03,13,8.00
2015,10,02,03,14,7.90
2015,10,02,03,15,7.90
2015,10,02,03,16,7.90
2015,10,02,03,17,7.80
2015,10,02,03,18,7.80
2015,10,02,03,19,7.80
2015,10,02,03,20,7.80
2015,10,02,03,21,7.80
2015,10,02,03,22,7.80
2015,10,02,03,23,7.70
2015,10,02,03,24,7.70
2015,10,02,03,25,7.70
2015,10,02,03,26,7.70
2015,10,02,03,27,7.70
2015,10,02,03,28,7.70
2015,10,02,03,29,7.70
2015,10,02,03,30,7.70
2015,10,02,03,31,7.60
2015,10,02,03,32,7.60
2015,10,02,03,33,7.60
2015,10,02,03,34,7.60
2015,10,02,03,35,7.60
2015,10,02,03,36,7.60
2015,10,02,03,37,7.60
2015,10,02,03,38,7.60
2015,10,02,03,39,7.60
2015,10,02,03,40,7.60
2015,10,02,03,41,7.60
2015,10,02,03,42,7.60
2015,10,02,03,43,7.60
2015,10,02,03,44,7.60
2015,10,02,03,45,7.60
2015,10,02,03,46,7.60
2015,10,02,03,47,7.60
2015,10,02,03,48,7.60
2015,10,02,03,49,7.60
2015,10,02,03,50,7.60
2015,10,02,03,51,7.60
2015,10,02,03,52,7.60
2015,10,02,03,53,7.60
2015,10,02,03,54,7.60
2015,10,02,03,55,7.60
2015,10,02,03,56,7.60
2015,10,02,03,57,7.60
2015,10,02,03,58,7.60
2015,10,02,03,59,7.60
2015,10,02,04,00,7.60
2015,10,02,04,01,7.60
2015,10,02,04,02,7.60
2015,10,02,04,03,7.60
2015,10,02,04,04,7.60
2015,10,02,04,05,7.60
2015,10,02,04,06,7.60
2015,10,02,04,07,7.60
2015,10,02,04,08,7.60
2015,10,02,04,09,7.50
2015,10,02,04,10,7.50
2015,10,02,04,11,7.50
2015,10,02,04,12,7.50
2015,10,02,04,13,7.50
2015,10,02,04,14,7.50
2015,10,02,04,15,7.50
2015,10,02,04,16,7.50
2015,10,02,04,17,7.50
2015,10,02,04,18,7.50
2015,10,02,04,19,7.50
2015,10,02,04,20,7.50
2015,10,02,04,21,7.50
2015,10,02,04,22,7.50
2015,10,02,04,23,7.50
2015,10,02,04,24,7.50
2015,10,02,04,25,7.50
2015,10,02,04,26,7.50
2015,10,02,04,27,7.50
2015,10,02,04,28,7.50
2015,10,02,04,29,7.50
2015,10,02,04,30,7.50
2015,10,02,04,31,7.50
2015,10,02,04,32,7.50
2015,10,02,04,33,7.50
2015,10,02,04,34,7.50
2015,10,02,04,35,7.50
2015,10,02,04,36,7.50
2015,10,02,04,37,7.40
2015,10,02,04,38,7.50
2015,10,02,04,39,7.50
2015,10,02,04,40,7.50
2015,10,02,04,41,7.50
2015,10,02,04,42,7.50
2015,10,02,04,43,7.50
2015,10,02,04,44,7.50
2015,10,02,04,45,7.50
2015,10,02,04,46,7.50
2015,10,02,04,47,7.50
2015,10,02,04,48,7.50
2015,10,02,04,49,7.50
2015,10,02,04,50,7.50
2015,10,02,04,51,7.50
2015,10,02,04,52,7.50
2015,10,02,04,53,7.60
2015,10,02,04,54,7.60
2015,10,02,04,55,7.60
2015,10,02,04,56,7.70
2015,10,02,04,57,7.70
2015,10,02,04,58,7.70
2015,10,02,04,59,7.80
2015,10,02,05,00,7.80
2015,10,02,05,01,7.80
2015,10,02,05,02,7.90
2015,10,02,05,03,7.90
2015,10,02,05,04,7.90
2015,10,02,05,05,8.00
2015,10,02,05,06,8.00
2015,10,02,05,07,8.10
2015,10,02,05,08,8.10
2015,10,02,05,09,8.10
2015,10,02,05,10,8.20
2015,10,02,05,11,8.20
2015,10,02,05,12,8.20
2015,10,02,05,13,8.30
2015,10,02,05,14,8.30
2015,10,02,05,15,8.40
2015,10,02,05,16,8.40
2015,10,02,05,17,8.40
2015,10,02,05,18,8.40
2015,10,02,05,19,8.40
2015,10,02,05,20,8.50
2015,10,02,05,21,8.40
2015,10,02,05,22,8.50
2015,10,02,05,23,8.50
2015,10,02,05,24,8.50
2015,10,02,05,25,8.50
2015,10,02,05,26,8.50
2015,10,02,05,27,8.50
2015,10,02,05,28,8.50
2015,10,02,05,29,8.50
2015,10,02,05,30,8.50
2015,10,02,05,31,8.50
2015,10,02,05,32,8.50
2015,10,02,05,33,8.50
2015,10,02,05,34,8.60
2015,10,02,05,35,8.60
2015,10,02,05,36,8.60
2015,10,02,05,37,8.60
2015,10,02,05,38,8.70
2015,10,02,05,39,8.70
2015,10,02,05,40,8.70
2015,10,02,05,41,8.70
2015,10,02,05,42,8.70
2015,10,02,05,43,8.70
2015,10,02,05,44,8.70
2015,10,02,05,45,8.70
2015,10,02,05,46,8.70
2015,10,02,05,47,8.70
2015,10,02,05,48,8.70
2015,10,02,05,49,8.70
2015,10,02,05,50,8.80
2015,10,02,05,51,8.80
2015,10,02,05,52,8.80
2015,10,02,05,53,8.80
2015,10,02,05,54,8.80
2015,10,02,05,55,8.80
2015,10,02,05,56,8.80
2015,10,02,05,57,8.80
2015,10,02,05,58,8.80
2015,10,02,05,59,8.80
2015,10,02,06,00,8.80
2015,10,02,06,01,8.90
2015,10,02,06,02,8.90
2015,10,02,06,03,8.90
2015,10,02,06,04,8.90
2015,10,02,06,05,8.90
2015,10,02,06,06,8.90
2015,10,02,06,07,9.00
2015,10,02,06,08,9.00
2015,10,02,06,09,9.00
2015,10,02,06,10,9.00
2015,10,02,06,11,9.00
2015,10,02,06,12,9.10
2015,10,02,06,13,9.00
2015,10,02,06,14,9.10
2015,10,02,06,15,9.10
2015,10,02,06,16,9.10
2015,10,02,06,17,9.10
2015,10,02,06,18,9.10
2015,10,02,06,19,9.10
2015,10,02,06,20,9.10
2015,10,02,06,21,9.10
2015,10,02,06,22,9.10
2015,10,02,06,23,9.10
2015,10,02,06,24,9.10
2015,10,02,06,25,9.10
2015,10,02,06,26,9.10
2015,10,02,06,27,9.10
2015,10,02,06,28,9.10
2015,10,02,06,29,9.10
2015,10,02,06,30,9.10
2015,10,02,06,31,9.10
2015,10,02,06,32,9.10
2015,10,02,06,33,9.10
2015,10,02,06,34,9.10
2015,10,02,06,35,9.10
2015,10,02,06,36,9.10
2015,10,02,06,37,9.00
2015,10,02,06,38,9.00
2015,10,02,06,39,9.00
2015,10,02,06,40,8.90
2015,10,02,06,41,8.90
2015,10,02,06,42,8.90
2015,10,02,06,43,8.90
2015,10,02,06,44,8.90
2015,10,02,06,45,8.90
2015,10,02,06,46,8.80
2015,10,02,06,47,8.80
2015,10,02,06,48,8.80
2015,10,02,06,49,8.80
2015,10,02,06,50,8.80
2015,10,02,06,51,8.80
2015,10,02,06,52,8.80
2015,10,02,06,53,8.80
2015,10,02,06,54,8.70
2015,10,02,06,55,8.70
2015,10,02,06,56,8.70
2015,10,02,06,57,8.70
2015,10,02,06,58,8.70
2015,10,02,06,59,8.70
2015,10,02,07,00,8.70
2015,10,02,07,01,8.70
2015,10,02,07,02,8.70
2015,10,02,07,03,8.70
2015,10,02,07,04,8.70
2015,10,02,07,05,8.70
2015,10,02,07,06,8.70
2015,10,02,07,07,8.70
2015,10,02,07,08,8.70
2015,10,02,07,09,8.70
2015,10,02,07,10,8.70
2015,10,02,07,11,8.70
2015,10,02,07,12,8.70
2015,10,02,07,13,8.70
2015,10,02,07,14,8.70
2015,10,02,07,15,8.70
2015,10,02,07,16,8.70
2015,10,02,07,17,8.70
2015,10,02,07,18,8.70
2015,10,02,07,19,8.70
2015,10,02,07,20,8.70
2015,10,02,07,21,8.80
2015,10,02,07,22,8.80
2015,10,02,07,23,8.80
2015,10,02,07,24,8.80
2015,10,02,07,25,8.90
2015,10,02,07,26,9.00
2015,10,02,07,27,9.00
2015,10,02,07,28,9.00
2015,10,02,07,29,9.10
2015,10,02,07,30,9.10
2015,10,02,07,31,9.10
2015,10,02,07,32,9.20
2015,10,02,07,33,9.20
2015,10,02,07,34,9.30
2015,10,02,07,35,9.30
2015,10,02,07,36,9.30
2015,10,02,07,37,9.30
2015,10,02,07,38,9.30
2015,10,02,07,39,9.30
2015,10,02,07,40,9.40
2015,10,02,07,41,9.40
2015,10,02,07,42,9.40
2015,10,02,07,43,9.40
2015,10,02,07,44,9.40
2015,10,02,07,45,9.40
2015,10,02,07,46,9.40
2015,10,02,07,47,9.40
2015,10,02,07,48,9.40
2015,10,02,07,49,9.40
2015,10,02,07,50,9.40
2015,10,02,07,51,9.40
2015,10,02,07,52,9.50
2015,10,02,07,53,9.50
2015,10,02,07,54,9.50
2015,10,02,07,55,9.50
2015,10,02,07,56,9.60
2015,10,02,07,57,9.60
2015,10,02,07,58,9.60
2015,10,02,07,59,9.60
2015,10,02,08,00,9.60
2015,10,02,08,01,9.60
2015,10,02,08,02,9.60
2015,10,02,08,03,9.60
2015,10,02,08,04,9.70
2015,10,02,08,05,9.70
2015,10,02,08,06,9.70
2015,10,02,08,07,9.70
2015,10,02,08,08,9.70
2015,10,02,08,09,9.70
2015,10,02,08,10,9.80
2015,10,02,08,11,9.80
2015,10,02,08,12,9.80
2015,10,02,08,13,9.80
2015,10,02,08,14,9.80
2015,10,02,08,15,9.80
2015,10,02,08,16,9.80
2015,10,02,08,17,9.80
2015,10,02,08,18,9.90
2015,10,02,08,19,9.90
2015,10,02,08,20,9.90
2015,10,02,08,21,9.90
2015,10,02,08,22,9.90
2015,10,02,08,23,9.90
2015,10,02,08,24,10.00
2015,10,02,08,25,10.00
2015,10,02,08,26,10.00
2015,10,02,08,27,10.00
2015,10,02,08,28,10.00
2015,10,02,08,29,10.00
2015,10,02,08,30,10.10
2015,10,02,08,31,10.10
2015,10,02,08,32,10.10
2015,10,02,08,33,10.10
2015,10,02,08,34,10.10
2015,10,02,08,35,10.10
2015,10,02,08,36,10.20
2015,10,02,08,37,10.20
2015,10,02,08,38,10.20
2015,10,02,08,39,10.20
2015,10,02,08,40,10.20
2015,10,02,08,41,10.20
2015,10,02,08,42,10.20
2015,10,02,08,43,10.30
2015,10,02,08,44,10.30
2015,10,02,08,45,10.30
2015,10,02,08,46,10.40
2015,10,02,08,47,10.40
2015,10,02,08,48,10.40
2015,10,02,08,49,10.50
2015,10,02,08,50,10.50
2015,10,02,08,51,10.60
2015,10,02,08,52,10.60
2015,10,02,08,53,10.70
2015,10,02,08,54,10.70
2015,10,02,08,55,10.70
2015,10,02,08,56,10.70
2015,10,02,08,57,10.70
2015,10,02,08,58,10.70
2015,10,02,08,59,10.70
2015,10,02,09,00,10.70
2015,10,02,09,01,10.80
2015,10,02,09,02,10.80
2015,10,02,09,03,10.80
2015,10,02,09,04,10.80
2015,10,02,09,05,10.80
2015,10,02,09,06,10.80
2015,10,02,09,07,10.80
2015,10,02,09,08,10.80
2015,10,02,09,09,10.80
2015,10,02,09,10,10.80
2015,10,02,09,11,10.90
2015,10,02,09,12,10.90
2015,10,02,09,13,10.90
2015,10,02,09,14,11.00
2015,10,02,09,15,11.00
2015,10,02,09,16,11.10
2015,10,02,09,17,11.10
2015,10,02,09,18,11.20
2015,10,02,09,19,11.20
2015,10,02,09,20,11.20
2015,10,02,09,21,11.30
2015,10,02,09,22,11.30
2015,10,02,09,23,11.30
2015,10,02,09,24,11.40
2015,10,02,09,25,11.40
2015,10,02,09,26,11.40
2015,10,02,09,27,11.40
2015,10,02,09,28,11.40
2015,10,02,09,29,11.50
2015,10,02,09,30,11.50
2015,10,02,09,31,11.50
2015,10,02,09,32,11.50
2015,10,02,09,33,11.60
2015,10,02,09,34,11.60
2015,10,02,09,35,11.60
2015,10,02,09,36,11.60
2015,10,02,09,37,11.60
2015,10,02,09,38,11.60
2015,10,02,09,39,11.60
2015,10,02,09,40,11.60
2015,10,02,09,41,11.60
2015,10,02,09,42,11.60
2015,10,02,09,43,11.60
2015,10,02,09,44,11.70
2015,10,02,09,45,11.70
2015,10,02,09,46,11.80
2015,10,02,09,47,11.80
2015,10,02,09,48,11.80
2015,10,02,09,49,11.90
2015,10,02,09,50,12.00
2015,10,02,09,51,12.00
2015,10,02,09,52,12.10
2015,10,02,09,53,12.10
2015,10,02,09,54,12.10
2015,10,02,09,55,12.10
2015,10,02,09,56,12.10
2015,10,02,09,57,12.10
2015,10,02,09,58,12.10
2015,10,02,09,59,12.10
2015,10,02,10,00,12.20
2015,10,02,10,01,12.20
2015,10,02,10,02,12.20
2015,10,02,10,03,12.20
2015,10,02,10,04,12.20
2015,10,02,10,05,12.20
2015,10,02,10,06,12.20
2015,10,02,10,07,12.20
2015,10,02,10,08,12.20
2015,10,02,10,09,12.30
2015,10,02,10,10,12.30
2015,10,02,10,11,12.30
2015,10,02,10,12,12.30
2015,10,02,10,13,12.30
2015,10,02,10,14,12.30
2015,10,02,10,15,12.30
2015,10,02,10,16,12.30
2015,10,02,10,17,12.30
2015,10,02,10,18,12.30
2015,10,02,10,19,12.30
2015,10,02,10,20,12.30
2015,10,02,10,21,12.30
2015,10,02,10,22,12.30
2015,10,02,10,23,12.30
2015,10,02,10,24,12.30
2015,10,02,10,25,12.30
2015,10,02,10,26,12.30
2015,10,02,10,27,12.30
2015,10,02,10,28,12.30
2015,10,02,10,29,12.30
2015,10,02,10,30,12.40
2015,10,02,10,31,12.40
2015,10,02,10,32,12.40
2015,10,02,10,33,12.50
2015,10,02,10,34,12.50
2015,10,02,10,35,12.60
2015,10,02,10,36,12.70
2015,10,02,10,37,12.80
2015,10,02,10,38,12.80
2015,10,02,10,39,12.80
2015,10,02,10,40,12.90
2015,10,02,10,41,12.90
2015,10,02,10,42,13.00
2015,10,02,10,43,13.00
2015,10,02,10,44,13.00
2015,10,02,10,45,13.10
2015,10,02,10,46,13.10
2015,10,02,10,47,13.20
2015,10,02,10,48,13.20
2015,10,02,10,49,13.20
2015,10,02,10,50,13.20
2015,10,02,10,51,13.20
2015,10,02,10,52,13.20
2015,10,02,10,53,13.20
2015,10,02,10,54,13.30
2015,10,02,10,55,13.30
2015,10,02,10,56,13.40
2015,10,02,10,57,13.50
2015,10,02,10,58,13.60
2015,10,02,10,59,13.70
2015,10,02,11,00,13.90
2015,10,02,11,01,14.00
2015,10,02,11,02,14.10
2015,10,02,11,03,14.20
2015,10,02,11,04,14.30
2015,10,02,11,05,14.40
2015,10,02,11,06,14.40
2015,10,02,11,07,14.50
2015,10,02,11,08,14.50
2015,10,02,11,09,14.50
2015,10,02,11,10,14.60
2015,10,02,11,11,14.60
2015,10,02,11,12,14.50
2015,10,02,11,13,14.50
2015,10,02,11,14,14.50
2015,10,02,11,15,14.50
2015,10,02,11,16,14.50
2015,10,02,11,17,14.50
2015,10,02,11,18,14.50
2015,10,02,11,19,14.50
2015,10,02,11,20,14.50
2015,10,02,11,21,14.50
2015,10,02,11,22,14.60
2015,10,02,11,23,14.60
2015,10,02,11,24,14.60
2015,10,02,11,25,14.70
2015,10,02,11,26,14.70
2015,10,02,11,27,14.70
2015,10,02,11,28,14.70
2015,10,02,11,29,14.70
2015,10,02,11,30,14.70
2015,10,02,11,31,14.70
2015,10,02,11,32,14.70
2015,10,02,11,33,14.70
2015,10,02,11,34,14.70
2015,10,02,11,35,14.70
2015,10,02,11,36,14.70
2015,10,02,11,37,14.70
2015,10,02,11,38,14.70
2015,10,02,11,39,14.70
2015,10,02,11,40,14.70
2015,10,02,11,41,14.70
2015,10,02,11,42,14.70
2015,10,02,11,43,14.60
2015,10,02,11,44,14.60
2015,10,02,11,45,14.60
2015,10,02,11,46,14.60
2015,10,02,11,47,14.60
2015,10,02,11,48,14.50
2015,10,02,11,49,14.50
2015,10,02,11,50,14.50
2015,10,02,11,51,14.40
2015,10,02,11,52,14.40
2015,10,02,11,53,14.40
2015,10,02,11,54,14.40
2015,10,02,11,55,14.40
2015,10,02,11,56,14.40
2015,10,02,11,57,14.40
2015,10,02,11,58,14.40
2015,10,02,11,59,14.30
2015,10,02,12,00,14.30
2015,10,02,12,01,14.30
2015,10,02,12,02,14.20
2015,10,02,12,03,14.20
2015,10,02,12,04,14.20
2015,10,02,12,05,14.20
2015,10,02,12,06,14.20
2015,10,02,12,07,14.20
2015,10,02,12,08,14.30
2015,10,02,12,09,14.30
2015,10,02,12,10,14.30
2015,10,02,12,11,14.30
2015,10,02,12,12,14.30
2015,10,02,12,13,14.40
2015,10,02,12,14,14.40
2015,10,02,12,15,14.50
2015,10,02,12,16,14.50
2015,10,02,12,17,14.50
2015,10,02,12,18,14.60
2015,10,02,12,19,14.60
2015,10,02,12,20,14.60
2015,10,02,12,21,14.60
2015,10,02,12,22,14.60
2015,10,02,12,23,14.60
2015,10,02,12,24,14.60
2015,10,02,12,25,14.60
2015,10,02,12,26,14.50
2015,10,02,12,27,14.50
2015,10,02,12,28,14.50
2015,10,02,12,29,14.50
2015,10,02,12,30,14.50
2015,10,02,12,31,14.50
2015,10,02,12,32,14.50
2015,10,02,12,33,14.50
2015,10,02,12,34,14.50
2015,10,02,12,35,14.60
2015,10,02,12,36,14.60
2015,10,02,12,37,14.60
2015,10,02,12,38,14.60
2015,10,02,12,39,14.60
2015,10,02,12,40,14.70
2015,10,02,12,41,14.70
2015,10,02,12,42,14.70
2015,10,02,12,43,14.70
2015,10,02,12,44,14.70
2015,10,02,12,45,14.70
2015,10,02,12,46,14.70
2015,10,02,12,47,14.80
2015,10,02,12,48,14.80
2015,10,02,12,49,14.80
2015,10,02,12,50,14.70
2015,10,02,12,51,14.70
2015,10,02,12,52,14.70
2015,10,02,12,53,14.60
2015,10,02,12,54,14.60
2015,10,02,12,55,14.50
2015,10,02,12,56,14.50
2015,10,02,12,57,14.40
2015,10,02,12,58,14.40
2015,10,02,12,59,14.40
2015,10,02,13,00,14.40
2015,10,02,13,01,14.40
2015,10,02,13,02,14.40
2015,10,02,13,03,14.50
2015,10,02,13,04,14.60
2015,10,02,13,05,14.60
2015,10,02,13,06,14.70
2015,10,02,13,07,14.70
2015,10,02,13,08,14.80
2015,10,02,13,09,14.80
2015,10,02,13,10,14.90
2015,10,02,13,11,15.00
2015,10,02,13,12,15.20
2015,10,02,13,13,15.30
2015,10,02,13,14,15.50
2015,10,02,13,15,15.60
2015,10,02,13,16,15.70
2015,10,02,13,17,15.90
2015,10,02,13,18,16.00
2015,10,02,13,19,16.10
2015,10,02,13,20,16.20
2015,10,02,13,21,16.30
2015,10,02,13,22,16.40
2015,10,02,13,23,16.50
2015,10,02,13,24,16.50
2015,10,02,13,25,16.60
2015,10,02,13,26,16.70
2015,10,02,13,27,16.80
2015,10,02,13,28,16.90
2015,10,02,13,29,17.00
2015,10,02,13,30,17.00
2015,10,02,13,31,17.10
2015,10,02,13,32,17.20
2015,10,02,13,33,17.20
2015,10,02,13,34,17.30
2015,10,02,13,35,17.30
2015,10,02,13,36,17.30
2015,10,02,13,37,17.30
2015,10,02,13,38,17.30
2015,10,02,13,39,17.30
2015,10,02,13,40,17.40
2015,10,02,13,41,17.40
2015,10,02,13,42,17.40
2015,10,02,13,43,17.40
2015,10,02,13,44,17.50
2015,10,02,13,45,17.50
2015,10,02,13,46,17.60
2015,10,02,13,47,17.70
2015,10,02,13,48,17.80
2015,10,02,13,49,17.80
2015,10,02,13,50,17.90
2015,10,02,13,51,17.90
2015,10,02,13,52,18.00
2015,10,02,13,53,18.00
2015,10,02,13,54,18.00
2015,10,02,13,55,18.10
2015,10,02,13,56,18.10
2015,10,02,13,57,18.10
2015,10,02,13,58,18.10
2015,10,02,13,59,18.20
2015,10,02,14,00,18.20
2015,10,02,14,01,18.20
2015,10,02,14,02,18.20
2015,10,02,14,03,18.30
2015,10,02,14,04,18.30
2015,10,02,14,05,18.30
2015,10,02,14,06,18.20
2015,10,02,14,07,18.10
2015,10,02,14,08,18.00
2015,10,02,14,09,18.00
2015,10,02,14,10,17.90
2015,10,02,14,11,18.00
2015,10,02,14,12,18.10
2015,10,02,14,13,18.10
2015,10,02,14,14,18.00
2015,10,02,14,15,17.90
2015,10,02,14,16,17.90
2015,10,02,14,17,17.80
2015,10,02,14,18,17.80
2015,10,02,14,19,17.70
2015,10,02,14,20,17.60
2015,10,02,14,21,17.60
2015,10,02,14,22,17.60
2015,10,02,14,23,17.70
2015,10,02,14,24,17.70
2015,10,02,14,25,17.80
2015,10,02,14,26,17.70
2015,10,02,14,27,17.70
2015,10,02,14,28,17.70
2015,10,02,14,29,17.60
2015,10,02,14,30,17.50
2015,10,02,14,31,17.40
2015,10,02,14,32,17.30
2015,10,02,14,33,17.30
2015,10,02,14,34,17.30
2015,10,02,14,35,17.20
2015,10,02,14,36,17.20
2015,10,02,14,37,17.20
2015,10,02,14,38,17.30
2015,10,02,14,39,17.30
2015,10,02,14,40,17.30
2015,10,02,14,41,17.20
2015,10,02,14,42,17.20
2015,10,02,14,43,17.10
2015,10,02,14,44,17.10
2015,10,02,14,45,16.90
2015,10,02,14,46,16.90
2015,10,02,14,47,16.80
2015,10,02,14,48,16.80
2015,10,02,14,49,16.70
2015,10,02,14,50,16.70
2015,10,02,14,51,16.70
2015,10,02,14,52,16.70
2015,10,02,14,53,16.70
2015,10,02,14,54,16.70
2015,10,02,14,55,16.70
2015,10,02,14,56,16.70
2015,10,02,14,57,16.70
2015,10,02,14,58,16.80
2015,10,02,14,59,16.80
2015,10,02,15,00,16.70
2015,10,02,15,01,16.70
2015,10,02,15,02,16.60
2015,10,02,15,03,16.40
2015,10,02,15,04,16.30
2015,10,02,15,05,16.20
2015,10,02,15,06,16.10
2015,10,02,15,07,16.00
2015,10,02,15,08,15.80
2015,10,02,15,09,15.80
2015,10,02,15,10,15.70
2015,10,02,15,11,15.60
2015,10,02,15,12,15.50
2015,10,02,15,13,15.50
2015,10,02,15,14,15.40
2015,10,02,15,15,15.40
2015,10,02,15,16,15.40
2015,10,02,15,17,15.30
2015,10,02,15,18,15.30
2015,10,02,15,19,15.30
2015,10,02,15,20,15.30
2015,10,02,15,21,15.30
2015,10,02,15,22,15.20
2015,10,02,15,23,15.20
2015,10,02,15,24,15.20
2015,10,02,15,25,15.10
2015,10,02,15,26,15.00
2015,10,02,15,27,15.00
2015,10,02,15,28,14.90
2015,10,02,15,29,14.90
2015,10,02,15,30,14.90
2015,10,02,15,31,14.90
2015,10,02,15,32,14.90
2015,10,02,15,33,14.90
2015,10,02,15,34,14.90
2015,10,02,15,35,14.90
2015,10,02,15,36,14.90
2015,10,02,15,37,14.90
2015,10,02,15,38,14.90
2015,10,02,15,39,14.90
2015,10,02,15,40,14.90
2015,10,02,15,41,14.90
2015,10,02,15,42,14.90
2015,10,02,15,43,14.80
2015,10,02,15,44,14.80
2015,10,02,15,45,14.70
2015,10,02,15,46,14.70
2015,10,02,15,47,14.60
2015,10,02,15,48,14.60
2015,10,02,15,49,14.60
2015,10,02,15,50,14.50
2015,10,02,15,51,14.40
2015,10,02,15,52,14.30
2015,10,02,15,53,14.30
2015,10,02,15,54,14.30
2015,10,02,15,55,14.20
2015,10,02,15,56,14.20
2015,10,02,15,57,14.20
2015,10,02,15,58,14.10
2015,10,02,15,59,14.10
2015,10,02,16,00,14.10
2015,10,02,16,01,14.10
2015,10,02,16,02,14.00
2015,10,02,16,03,14.00
2015,10,02,16,04,14.00
2015,10,02,16,05,14.00
2015,10,02,16,06,14.00
2015,10,02,16,07,14.00
2015,10,02,16,08,14.00
2015,10,02,16,09,14.10
2015,10,02,16,10,14.10
2015,10,02,16,11,14.10
2015,10,02,16,12,14.10
2015,10,02,16,13,14.10
2015,10,02,16,14,14.10
2015,10,02,16,15,14.10
2015,10,02,16,16,14.10
2015,10,02,16,17,14.10
2015,10,02,16,18,14.10
2015,10,02,16,19,14.00
2015,10,02,16,20,14.00
2015,10,02,16,21,13.90
2015,10,02,16,22,13.90
2015,10,02,16,23,13.90
2015,10,02,16,24,13.90
2015,10,02,16,25,13.80
2015,10,02,16,26,13.80
2015,10,02,16,27,13.80
2015,10,02,16,28,13.80
2015,10,02,16,29,13.80
2015,10,02,16,30,13.80
2015,10,02,16,31,13.80
2015,10,02,16,32,13.80
2015,10,02,16,33,13.80
2015,10,02,16,34,13.90
2015,10,02,16,35,13.90
2015,10,02,16,36,13.90
2015,10,02,16,37,13.90
2015,10,02,16,38,13.90
2015,10,02,16,39,13.90
2015,10,02,16,40,13.90
2015,10,02,16,41,14.00
2015,10,02,16,42,14.00
2015,10,02,16,43,14.00
2015,10,02,16,44,14.00
2015,10,02,16,45,14.00
2015,10,02,16,46,14.10
2015,10,02,16,47,14.20
2015,10,02,16,48,14.20
2015,10,02,16,49,14.40
2015,10,02,16,50,14.50
2015,10,02,16,51,14.60
2015,10,02,16,52,14.70
2015,10,02,16,53,14.80
2015,10,02,16,54,14.90
2015,10,02,16,55,15.00
2015,10,02,16,56,15.00
2015,10,02,16,57,15.10
2015,10,02,16,58,15.10
2015,10,02,16,59,15.20
2015,10,02,17,00,15.30
2015,10,02,17,01,15.30
2015,10,02,17,02,15.40
2015,10,02,17,03,15.50
2015,10,02,17,04,15.60
2015,10,02,17,05,15.60
2015,10,02,17,06,15.70
2015,10,02,17,07,15.80
2015,10,02,17,08,15.90
2015,10,02,17,09,16.00
2015,10,02,17,10,16.10
2015,10,02,17,11,16.20
2015,10,02,17,12,16.30
2015,10,02,17,13,16.40
2015,10,02,17,14,16.50
2015,10,02,17,15,16.60
2015,10,02,17,16,16.60
2015,10,02,17,17,16.70
2015,10,02,17,18,16.80
2015,10,02,17,19,16.80
2015,10,02,17,20,16.90
2015,10,02,17,21,17.00
2015,10,02,17,22,17.10
2015,10,02,17,23,17.20
2015,10,02,17,24,17.20
2015,10,02,17,25,17.30
2015,10,02,17,26,17.30
2015,10,02,17,27,17.30
2015,10,02,17,28,17.30
2015,10,02,17,29,17.40
2015,10,02,17,30,17.40
2015,10,02,17,31,17.30
2015,10,02,17,32,17.30
2015,10,02,17,33,17.20
2015,10,02,17,34,17.10
2015,10,02,17,35,16.90
2015,10,02,17,36,16.80
2015,10,02,17,37,16.50
2015,10,02,17,38,16.40
2015,10,02,17,39,16.20
2015,10,02,17,40,16.10
2015,10,02,17,41,15.90